www.pogodaiklimat.ru

ПОГОДА в Эммонаке, AK

  • Прогноз погоды в Эммонаке
  • Монитор погоды в Эммонаке
  • Климат в Эммонаке

АРХИВ ПОГОДЫ в Эммонаке

Время (UTC), дата Ветер
(напр.,м/с)
 
Видим.   Явления Облачность Т
(С)
Тd
(С)
f
(%)
Тe
(С)
Тes
(С)
Комфортность

P
(гПа)

Po
(гПа)
Тmin
(С)
Tmax
(С)
R
(мм)
SD
(см)
09:56 21.03 СВ  13
{17} 
2 км  слабый снег, дымка  10/10 270 м  -9.4  -11.1  87  -22  -22    1005.7  999.1         
10:19 21.03 СВ  11  2 км  слабый снег, дымка  10/10 330 м  -9.0  -11.0  85  -21  -21      999.4         
10:56 21.03 СВ  13
{16} 
2 км  слабый снег, дымка  10/10 330 м  -10.0  -11.7  87  -23  -23    1005.1  998.7  -10.0  -8.3     
11:02 21.03 СВ  13
{16} 
2 км  слабый снег, дымка  10/10 270 м  -10.0  -12.0  85  -22  -22      998.7         
11:20 21.03 СВ  13
{16} 
2 км  слабый снег, дымка  10/10 480 м  -10.0  -12.0  85  -22  -22      998.4         
11:42 21.03 СВ  13
{17} 
2 км  слабый снег, дымка  10/10 420 м  -10.0  -12.0  85  -22  -22      998.4         
11:51 21.03 СВ  12
{17} 
2 км  слабый снег, дымка  10/10 420 м  -10.0  -11.0  92  -22  -22      998.4         
11:56 21.03 СВ  12
{14} 
2 км  слабый снег, дымка  10/10 420 м  -10.0  -11.7  87  -22  -22    1004.8  998.4         
12:11 21.03 СВ  13
{16} 
2 км  слабый снег, дымка  10/10 420 м  -10.0  -12.0  85  -22  -22      998.1         
12:23 21.03 СВ  13
{16} 
2 км  слабый снег, дымка  10/10 390 м  -10.0  -12.0  85  -22  -22      998.1         
12:32 21.03 СВ  12
{15} 
2 км  слабый снег, дымка  10/10 450 м  -10.0  -12.0  85  -22  -22      998.1         
12:56 21.03 СВ  11  2 км  слабый снег, дымка  10/10 390 м  -10.0  -11.1  92  -22  -22    1004.2  997.7         
13:23 21.03 СВ  13  4 км  слабый снег, дымка  10/10 480 м  -10.0  -11.0  92  -22  -22      997.7         
13:36 21.03 С  13
{16} 
3 км  слабый снег, дымка  10/10 330 м  -10.0  -12.0  85  -22  -22      997.7         
13:39 21.03 СВ  12
{16} 
3 км  слабый снег, дымка  10/10 330 м  -10.0  -11.0  92  -22  -22      997.7         
13:56 21.03 СВ  11
{14} 
3 км  слабый снег, дымка  10/10 330 м  -9.4  -11.1  87  -21  -21    1004.2  997.7         
14:03 21.03 СВ  11
{14} 
3 км  слабый снег, дымка  10/10 330 м  -9.0  -11.0  85  -21  -21      997.7         
14:11 21.03 СВ  13
{14} 
3 км  слабый снег, дымка  10/10 330 м  -9.0  -11.0  85  -21  -21      997.4         
14:56 21.03 СВ  12
{14} 
4 км  слабый снег, дымка  10/10 330 м  -10.0  -11.1  92  -22  -22    1004.3  997.7         
15:04 21.03 СВ  11
{15} 
5 км  слабый снег, дымка  10/10 330 м  -9.0  -11.0  85  -20  -20      998.1         
15:38 21.03 СВ  11
{14} 
3 км  слабый снег, дымка  10/10 930 м  -9.0  -11.0  85  -20  -20      997.7         
15:46 21.03 СВ  12
{17} 
2 км  слабый снег, дымка  10/10 930 м  -9.0  -11.0  85  -21  -21      997.4         
15:56 21.03 СВ  11
{14} 
4 км  слабый снег, дымка  10/10 360 м  -9.4  -11.1  87  -21  -21    1004.1  997.7         
16:27 21.03 СВ  11
{14} 
3 км  слабый снег, дымка  10/10 360 м  -9.0  -11.0  85  -20  -20      997.4         
16:56 21.03 СВ  10
{13} 
2 км  слабый снег, дымка  10/10 300 м  -9.4  -11.1  87  -21  -21    1003.9  997.4  -10.0  -9.4     
17:11 21.03 СВ  10  4 км  слабый снег, дымка  10/10 300 м  -9.0  -11.0  85  -20  -20      997.4         
17:37 21.03 СВ  10
{13} 
6 км  слабый снег, дымка  10/10 300 м  -9.0  -11.0  85  -20  -20      997.4         
17:56 21.03 СВ  10
{13} 
6 км  слабый снег, дымка  10/10 300 м  -8.9  -10.6  87  -20  -20    1003.5  997.0         
18:06 21.03 СВ  10
{13} 
3 км  слабый снег, дымка  10/10 300 м  -9.0  -11.0  85  -20  -20      997.0         
18:14 21.03 СВ  10  3 км  слабый снег, дымка  10/10 300 м  -9.0  -11.0  85  -20  -20      997.0         
18:36 21.03 СВ  6 км  слабый снег, дымка  10/10 300 м  -9.0  -10.0  92  -20  -20      997.4         
18:44 21.03 СВ  6 км  слабый снег, дымка  10/10 300 м  -8.0  -10.0  85  -19  -19      997.4         
18:56 21.03 СВ  9
{12} 
10 км  слабый снег, дымка  10/10 300 м  -8.3  -10.0  88  -19  -19    1003.7  997.4         
19:28 21.03 СВ  10 км  слабый снег, дымка  10/10 300 м  -8.0  -9.0  92  -19  -19      997.4         
19:56 21.03 СВ  10  6 км  слабый снег, дымка  10/10 600 м  -7.8  -9.4  88  -19  -19    1003.5  997.0         
20:01 21.03 СВ  10  5 км  слабый снег, дымка  10/10 270 м  -8.0  -9.0  92  -19  -19      997.0         
20:07 21.03 СВ  10
{13} 
3 км  слабый снег, дымка  10/10 270 м  -8.0  -9.0  92  -19  -19      997.0         
20:39 21.03 СВ  4 км  слабый снег, дымка  10/10 510 м  -7.0  -9.0  86  -17  -17      996.7         
20:56 21.03 СВ  3 км  слабый снег, дымка  10/10 660 м  -6.7  -8.3  88  -17  -17    1002.9  996.4         
21:04 21.03 СВ  2 км  слабый снег, дымка  10/10 810 м  -7.0  -8.0  93  -18  -18      996.7         
21:21 21.03 СВ  5 км  слабый снег, дымка  10/10 690 м  -7.0  -8.0  93  -17  -17      996.4         
21:44 21.03 СВ  10  6 км  слабый снег, дымка  10/10 240 м  -6.0  -8.0  86  -16  -16      996.4         
21:56 21.03 СВ  8 км  дымка  10/10 240 м  -6.1  -7.8  88  -16  -16    1003.0  996.7         
22:34 21.03 СВ  16 км    10/10 570 м  -6.0  -7.0  93  -16  -16      996.0         
22:56 21.03 СВ  16 км    10/10 570 м  -5.0  -6.7  88  -14  -14    1002.5  996.0  -9.4  -5.0     
23:52 21.03 СВ  16 км    10/10 210 м  -4.0  -6.0  86  -13  -13      995.7         
23:56 21.03 СВ  16 км    10/10 210 м  -3.9  -5.6  88  -13  -13    1001.8  995.4         
00:31 22.03 СВ  3 км  слабый снег, дымка  10/10 210 м  -3.0  -5.0  86  -12  -12      995.4         

 

Местоположение метеостанции Emmonak Airport: широта 62.7833 долгота -164.5000 высота над уровнем моря 4 м.

В архиве по умолчанию представлена погода в Эммонаке за последние 1-2 суток. Обновление информации о фактической погоде в базе происходит ежечасно! Архивные данные за месяц целиком и за предыдущие месяцы Вы можете получить, выбрав интересующий диапазон дат из раскрывающегося списка и нажав кнопку "Ввод!".

Внимание! Архив погоды МЕТАР в базе сайта хранится не более 60 дней. Нет смысла пытаться выбрать более раннюю дату.

Внимание! Время в таблицах - всемирное. Для получения местного времени необходимо прибавить поправку, которая в Эммонаке равна -9 ч.

Ветер - указаны скорость ветра в м/с и направление, откуда дует ветер: С - северный, СВ - северо-восточный, В - восточный, ЮВ - юго-восточный, Ю - южный, ЮЗ - юго-западный, З - западный, СЗ - северо-западный.
Видимость - горизонтальная дальность видимости в метрах или километрах. При видимости от 1 до 10 км при отсутствии осадков обычно наблюдается дымка, при ухудшении видимости до 1 км и менее - туман. В сухую погоду видимость может ухудшаться дымом, пылью или мглою.
Атмосферные явления - указаны явления, наблюдавшиеся в указанный момент времени.
Облачность - указаны через наклонную черту верхняя и нижняя облачность в баллах и высота нижней границы облаков в метрах. Внимание: облачность, как и прочие метеорологические величины в США измеряются автоматическими метеостанциями. Указанные значения в баллах носят условный характер и показывают процент времени, в течение которого, в среднем, лазерный луч высотомера отражался от облаков обратно.
T - Температура воздуха - температура, измеренная на высоте 2 м над землей.
Td - Температура точки росы - температура, при понижении до которой содержащийся в воздухе водяной пар достигнет насыщения.
f - Относительная влажность воздуха - влажноcть воздуха, измеренная на высоте 2 м над землей.
Te - Эффективная температура - температура, которую ощущает одетый по сезону человек в тени. Характеристика душности погоды. При расчете учитывается влияние влажности воздуха и скорости ветра на теплоощущения человека.
Tes - Эффективная температура на солнце - температура, которую ощущает человек, с поправкой на солнечный нагрев. Характеристика знойности погоды. Зависит от высоты солнца над горизонтом, облачности и скорости ветра. Ночью, в пасмурную погоду, а также при ветре 12 м/с и более поправка равна нулю.
P - Атмосферное давление - приведенное к уровню моря атмосферное давление.
Po - Атмосферное давление - измеренное на уровне метеостанции атмосферное давление.
Tmin - Минимальная температура - минимум температуры воздуха на высоте 2 м над землей.
Tmax - Максимальная температура - максимум температуры воздуха на высоте 2 м над землей.
R - Количество осадков - Количество выпавших осадков за 3 или 6 часов, мм.
SD - Снежный покров - Высота снежного покрова, см.